QUI SOM?

ITER5 és una empresa especialitzada en el cronometratge i gestió esportiva. Ens adrecem a les institucions públiques i privades, als clubs i associacions esportives per tal de proporcionar els nostres coneixements i recursos.

INFORMACIÓ
  • Complex la Caparrella. Ed. CEEI. 2.7 - 25192 - LLEIDA
  • Lat.: 41.599045 | Long.: 0.581511
  • 635-164-197 / 654-555-394
  • info@iter5.cat

Resultats Templers - Lleida - 10K - Edició 2017

Pos. Dorsal Nom T.Oficial
1 3 ALBERT REIG FLORENSA 00:33:50
2 88 JORDI GARCIA RUIZ 00:34:03
3 2 SANCHO AYALA ABAD 00:34:16
4 319 ANTONI CARULLA ABADAL 00:34:57
5 415 MARC EXPÓSITO PORTA 00:35:48
6 4 JOSEP PASCUAL ROSELL 00:35:48
7 5 JOSEP MARIA BERGUA MUÑOZ 00:36:18
8 300 CRISTIAN CATALA BLAY 00:36:45
9 137 MANEL OLIVA LEAL 00:36:48
10 495 MARC BERGES PEIRÓ 00:36:57
11 335 ALBERT PUÉRTOLAS FABRA 00:37:00
12 295 JOSEP BORGES SOLÀ 00:37:01
13 153 MARC MIRABALL GÓMEZ 00:37:16
14 455 MIGUEL MORENO SANCHEZ 00:37:32
15 70 POL VAQUE PIEDRAFITA 00:37:52
16 368 DANIEL PÉREZ MARTÍN 00:37:57
17 95 XAVI GUTIÉRREZ RIU 00:38:43
18 301 MIGUEL FRESNO AMATE 00:38:43
19 293 CARLOS MORA SANS 00:38:45
20 102 OSCAR OLIVA PAU 00:38:49
21 299 ROSAMARI CARULLA ARGILÉS 00:38:53
22 109 JACOB VILADOMS BELLART 00:38:56
23 433 TONI DIAZ MEDINA 00:39:12
24 36 FRANCESC LLOVERAS NOGAREDA 00:39:21
25 350 CESAR CALVILLO GALAN 00:39:24
26 6 MIREIA SOSA PÉREZ 00:39:25
27 189 XAVIER ANDREU BARBERÀ 00:39:39
28 331 ALBERT GOMEZ VIDAL 00:39:55
29 25 ROGER ESPINET BARQUETS 00:39:58
30 87 ORIOL VICENS BOSCH 00:39:58
31 164 SALVA PASCUAL VENZALA 00:39:59
32 475 JAVIER LAZARO AYUSO 00:40:02
33 62 ARNAU SALVANY PIJUAN 00:40:04
34 134 ARNAU DONES LLOBERA 00:40:04
35 216 JUANMA FERNANDEZ HORNERO 00:40:09
36 351 JAUME CODINA MEJON 00:40:11
37 329 ELISEO DEL OLMO MOYA 00:40:20
38 146 EDUARDO SESÉ 00:40:25
39 176 SANTI VILLEGAS GARCIA 00:40:26
40 155 SANTI PAMPOLS SOLANS 00:40:30
41 292 FRANCISCO MACIAS DURAN 00:40:33
42 143 FERNANDO TORRES CHAVARRIA 00:40:35
43 454 TONI MORELL CAÑIZARES 00:40:36
44 150 CARLES EZQUERRA GARCÍA 00:40:37
45 172 JAUME LOPEZ BONCOMPTE 00:40:40
46 17 JORDI BOSCH MUNTAL 00:40:40
47 119 DAVID HERRERA ABREU 00:40:43
48 182 JOAN JORDI CLOP MANUEL 00:40:50
49 96 VICTOR FILLAT GARRIDO 00:40:54
50 382 ADRIAN OTI RECIO 00:40:57
51 296 DANIEL MAÑANET NAVAL 00:41:01
52 144 JOAN BRUFAL CARBONELL 00:41:12
53 71 GERARD VILA ALBIOL 00:41:14
54 244 ISIDRO PUIG SANCHIS 00:41:21
55 272 JOAN NAVARRO 00:41:27
56 481 FRANCESC SERRA BARRABEIG 00:41:37
57 239 GERMAN PABLO JIMENEZ 00:41:47
58 84 ANTONI LLOBERA TORRES 00:41:51
59 198 DANIEL BOSCH CAPDEVILA 00:41:55
60 64 GERARD SERENA VEIG 00:41:59
61 113 PERE CASAS MURTRA 00:42:00
62 257 OSCAR DÍAZ HERNÁNDEZ 00:42:13
63 235 MIQUEL MOLINS ELIZALDE 00:42:18
64 68 FELIP VALLMANYA LLENA 00:42:32
65 35 FELIPE LLAGUNA EGEA 00:42:38
66 7 LUZ MORENO AVILA 00:42:40
67 114 JOAN MOGAS AMOROS 00:42:43
68 459 JOSE MANUEL PEREZ BESTUE 00:42:43
69 302 JORDI MATA RODRIGUEZ 00:42:51
70 97 DANIEL FERNANDEZ ESTEBAN 00:42:53
71 399 PEDRO MAYORAL COLOMA 00:42:54
72 403 ISAAC MORLANS VITORES 00:42:54
73 77 BART LOOMANS 00:43:05
74 472 FERRAN VELA RIBES 00:43:11
75 305 JORDI RIBES COMPANYS 00:43:13
76 83 FREDY DIAZ RODRIGUEZ 00:43:18
77 76 TONI GARCIA JIMENEZ I 00:43:23
78 192 SERGI BADIA GARCIA 00:43:23
79 181 ROGER CLOSA VILARDELL 00:43:34
80 135 JORGE GUERRERO RODRIGUEZ 00:43:36
81 402 JOSE LUIS MORALES RULL 00:43:37
82 191 JOAN AUGÉ ESPUGA 00:43:40
83 222 ALEX GUAL RIPOLL 00:43:50
84 10 ALBERT AUSAS CORTADA 00:43:53
85 306 QUIM SUMALLA SUÁREZ 00:43:55
86 209 FRANCESC CULLERÉ JOVÉ 00:44:03
87 148 LLUIS AGUILA AMOROS 00:44:06
88 194 ESTEBAN BADIAS MOLA 00:44:06
89 348 DIEGO PEREZ GALINDO 00:44:07
90 315 JOSÉ ANTONIO HERNÁNDEZ ROMERO 00:44:07
91 125 MARTA ALTISENT SANAHUJA 00:44:11
92 126 XAVI TELLA CORNELLANA 00:44:11
93 105 ABEL GARCIA JIMÉNEZ 00:44:12
94 397 GHEORGHE ALIN HODOROGA 00:44:14
95 81 FRANCESC SAURET GRAU 00:44:15
96 178 VICENTE GIL SAEZ 00:44:25
97 JESUS ECHAUZ TRILLA 00:44:25
98 43 LLUIS MAURI RAMON 00:44:38
99 104 AUREA ARCE FARRE 00:44:39
100 388 CRISTINA ALCIVAR BARNUEVO 00:44:40
101 173 ROBERT GUAL CAMPABADAL 00:44:44
102 169 OSCAR PIFARRE SERRATE 00:44:46
103 385 SISCO DEL OLMO CASTELLÓ 00:44:47
104 228 JULIÀ LORDAN BOTARGUES 00:44:47
105 188 JOSU ALFARO PLA 00:44:49
106 122 JOAN TERMENS 00:44:51
107 107 DAVID MIR CAMINAL 00:44:53
108 430 RAMON CIRIA BONET 00:44:54
109 359 ÍÑIGO MONTAÑA ESPINACO 00:44:57
110 478 RUBEN MONCAYO MENENDEZ 00:45:06
111 482 QUIM MARTÍ 00:45:19
112 466 CARMEN CANTERO CATALAN 00:45:19
113 74 IVAN SUÀREZ 00:45:22
114 47 MOISES MEZCUA GOMEZ 00:45:28
115 434 EDUARD FARRAN FARRÉ 00:45:38
116 343 JOSÉ RAMÓN VALLE PIQUE 00:45:38
117 342 MONTSE MAGALLON CORTADA 00:45:39
118 115 JORDI PONS SORA 00:45:41
119 212 OSCAR ESPILEZ URBON 00:45:45
120 127 CARLOS ENJUANES LLOP 00:45:45
121 24 TONI ESCALONA MELINES 00:45:46
122 358 BLAI MARTINEZ SANCHEZ 00:45:46
123 468 CATHERINE JOY WADDILOVE 00:45:51
124 108 TONI SANCHEZ AGUILA 00:46:02
125 9 DANIEL ARCHAMBEAU FERNANDEZ 00:46:02
126 389 DAVID ALFAGEME GILART 00:46:07
127 170 MIGUEL SANCHEZ DE GREGORIO 00:46:07
128 167 XAVIER ALONSO 00:46:07
129 171 JOSEP SOLE TORRENTE 00:46:08
130 377 JORDI PEY GIRO 00:46:08
131 364 MIQUEL ODINA I JULIÀ 00:46:10
132 432 ERIC CRUZ ESCALONA 00:46:10
133 57 LLORENÇ RIBES RIBES 00:46:12
134 356 ANNA MARTÍ REÑÉ 00:46:13
135 186 TOMÀS ALBA SÁNCHEZ 00:46:16
136 31 RUBEN GUZMAN RUIZ 00:46:20
137 103 NÚRIA ALCÀNTARA RODRÍGUEZ 00:46:21
138 15 JOSE BENEITEZ MORON 00:46:23
139 213 JOSEP ESPUÑA BARRULL 00:46:23
140 85 JOSEP MONTSERRAT CAPDEVILA 00:46:27
141 387 ADRIAN ACOSTA SALAZAR 00:46:28
142 462 JOSE SERRANO CASASOLA 00:46:30
143 90 JESÚS ALAJARIN RODRIGUEZ 00:46:32
144 185 RUBEN ALAMAN IBIZA 00:46:34
145 488 LLUIS ROMERO SANUY 00:46:40
146 14 MARC BARO GARCIA 00:46:47
147 425 JOAN CALVO MINGOT 00:46:50
148 312 DANI ROL AGUDO 00:46:56
149 318 JOAN MARTINEZ JOVE 00:46:58
150 487 OSCAR MUÑOZ ALVAREZ 00:47:00
151 201 JOSÉ ÁNGEL CABRERO PICO 00:47:00
152 106 JORDI HEREDIA ACEDO 00:47:00
153 214 GERARD ESQUERDA RIBERA 00:47:10
154 16 VICTOR BLANCO XUCLA 00:47:11
155 414 JOSEP MARIA VEIS MELERO 00:47:12
156 37 DAVID LOPEZ REQUENA 00:47:13
157 140 JOAN TOUS MONER 00:47:13
158 205 EDU CASTILFORTE TORRES 00:47:18
159 223 JOSEP IBARS VALLESPI 00:47:20
160 394 ROXANA COJOCARU 00:47:22
161 320 VICTOR RODRIGUEZ QUESADA 00:47:25
162 413 ORIOL VALGAÑON BARBERÀ 00:47:28
163 465 JUANJO VALGAÑON 00:47:28
164 309 JOSEP VENTURA ESPONA FERRER 00:47:29
165 314 GISELA SANCHEZ BAIGET 00:47:30
166 121 ALBERT RUBIÓ BALAGUÉ 00:47:31
167 117 MARC BALASCH MORENO 00:47:31
168 79 XAVI NICOLAU MESSEGUÉ 00:47:32
169 78 ALFONSO MEDINA ROMERO 00:47:32
170 345 GILBERT BERTRAN COMA 00:47:35
171 376 MIGUEL ANGEL BARFALUY BUIL 00:47:36
172 168 NACHO MAYORAL LLESUY 00:47:36
173 80 JOAN RUBIOL VILES 00:47:36
174 55 ANDREA PEREZ MARTIN 00:47:39
175 311 ALEX RODRIGUEZ PRIM 00:47:41
176 347 BENITO PASCUAL GARCIA 00:47:42
177 86 XAVIER PEREZ SIMO 00:47:42
178 418 EDUARD MÉNDEZ PEREYRA 00:47:43
179 313 MARC MARTINEZ MARTINOLI 00:47:45
180 308 IRMA ZAVIRIUCHA 00:47:45
181 461 ANTONIO RODRÍGUEZ. GARCÍA 00:47:46
182 242 JORDI PIJUAN MARQUILLES 00:47:47
183 8 JOAN AGUSTI JOVE 00:47:49
184 98 GONZALO DIAZ MUÑOZ 00:47:53
185 49 EUGENI MONTULL MIMBRERA 00:47:55
186 232 RAMON MATEU 00:47:56
187 195 JORDI BARALDÉS VALLVERDÚ 00:47:58
188 217 JORDI FONOLLOSA 00:48:00
189 491 JORDI CLARISO FLORENSA 00:48:03
190 471 JORDI MIRET BERROCAL 00:48:06
191 42 CRISTINA MASIP GARCIA 00:48:19
192 237 MARIO MUÑOZ 00:48:19
193 234 JOSEP MIMBRERA CUENCA 00:48:20
194 470 FRAN FONTANALS RIBES 00:48:22
195 39 MIGUEL ANGEL LUQUE LASTRA 00:48:25
196 456 ALBERT MUÑOZ ANGUERA 00:48:27
197 40 JOAN ANTONI MARTI MARTI 00:48:27
198 409 BORJA RUANO BOZAL 00:48:34
199 447 PAU MARCO AGUSTÍ 00:48:37
200 99 ALBERT CORTÉS TEIXIDÓ 00:48:39
201 341 M JOSE SARDOY RIVED 00:48:41
202 92 FERRAN GRAU BRESCÓ 00:48:44
203 266 JOSE M. HIJANO DÍAZ 00:48:44
204 156 ALEIX ALBIR MARTI 00:48:44
205 353 SANDRA GARCIA CASAMIAN 00:48:44
206 158 JOSE MARIA DIAZ SUBIAS 00:48:46
207 203 NÚRIA CARRERA SEBASTIA 00:48:47
208 118 NEUS GILI MASAGUÉ 00:48:50
209 141 TXÚS NOGUÉS NOGUERA 00:48:53
210 241 JORDI PELLISÉ BELLOSTAS 00:48:54
211 500 JOSEP M VAQUÉ CASTILLA 00:48:54
212 147 QUIM BONFILL CORTIELLA 00:48:55
213 380 FRANCESC DURANY PROFITOS 00:48:58
214 328 XAVIER DE HARO MARTIN 00:48:58
215 26 ROBERT FARRA PALLEROLS 00:49:02
216 65 CARME SERRES GONZÁLEZ 00:49:02
217 ALBERT CARBONELL BADIA 00:49:02
218 479 ARMANDO ONCINS SAMA 00:49:03
219 19 ESTEVE BRUGULAT CUÑÉ 00:49:06
220 128 ROSA AITANA GUIVERNAU I HUGUET 00:49:08
221 33 CARME HUGUET PENELLA 00:49:08
222 48 XAVIER MONTAÑOLA CHANCHO 00:49:12
223 112 JOSE MANUEL SEGURADO MORALEJO 00:49:16
224 379 ALFONS DURANY PROFITOS 00:49:20
225 221 ANDRES GARCIA SANCHEZ 00:49:22
226 457 SERGI ORDOÑEZ PALAU 00:49:23
227 441 ANDRES GARCÍA NÚÑEZ 00:49:23
228 MARIONA SIMO SOLSONA 00:49:28
229 120 SANTI OMS VILANOVA 00:49:28
230 357 ALFREDO MARTÍN CORPORALES 00:49:29
231 361 JOAN TEIXIDÓ PARRAMONA 00:49:37
232 18 FELIX BOTER JOVER 00:49:37
233 464 TONI UCEDA SALES 00:49:41
234 417 ROGER BELLET SANJUAN 00:49:42
235 346 MARIO LOPEZ SOLA 00:49:45
236 412 CARLOS SORIA EIZMENDI 00:49:45
237 236 CHRISTIAN MOYA MUÑOZ 00:49:49
238 424 ALBERT BEGUÉ FARRÉ 00:49:50
239 483 STELIAN OPREA 00:49:51
240 362 NOEMÍ TORRAS CORTINA 00:50:05
241 116 DIONISIO CASES SABARIEGO 00:50:05
242 130 CARLES LARRIBA RIBES 00:50:07
243 419 JAVI REMÓN PIÑOL 00:50:11
244 297 MARIA MAÑANET NAVAL 00:50:13
245 183 JOSEP ROFES BARCELO 00:50:16
246 180 JOSEP ALCONCHEL CABRERA 00:50:18
247 133 ROSSEND BERTOMEU MONTOLIU 00:50:24
248 355 MONTSE HERRERA DORADO 00:50:26
249 349 JOSE BAENA RIBE 00:50:28
250 174 ANTONIO MUÑOZ CANTADOR 00:50:29
251 243 ROBERT PIÑOL NOVALES 00:50:32
252 317 NÚRIA MESEGUÉ MONTESINOS 00:50:34
253 245 MIQUEL RIBALTA CÁNTARO 00:50:36
254 165 JORDI SERÓ ROIGÉ 00:50:37
255 151 CARLOS GÓMEZ DE CASTRO 00:50:40
256 512 ELENA LOPEZ TRUCO 00:50:40
257 154 ERNEST ROS CORTADA 00:50:41
258 94 XAVI SAMPER URBANO 00:50:42
259 215 MÒNICA ESTEBAN PARRA 00:50:45
260 22 FEDE DIEZ ESCRIBANO 00:50:53
261 72 IMMA XIPELL CLARASO 00:50:54
262 411 SARA SOLSONA MARTI 00:50:56
263 370 ADRIÀ PONS VILALTA 00:50:56
264 246 MOISES RODRIGUEZ FIESTAS 00:50:56
265 204 CARLES CASTELLÓ I MATEU 00:50:57
266 231 MIQUEL MARTI FAJARDO 00:50:58
267 211 JOSEP MARIA ELVIRA MINGUEZ 00:51:06
268 363 RAMON TORRES VALLVÉ 00:51:09
269 360 JULI PAULS VERDU 00:51:15
270 410 EUDALD SERRANO ORTEGA 00:51:24
271 58 ADRIA ROSET FARRAS 00:51:24
272 400 SERGI MIRANDA BERTRAN 00:51:33
273 367 PAULA LÓPEZ TORRENT 00:51:33
274 101 OSCAR NUÑO ISLA 00:51:39
275 480 CARME LÓPEZ MASANA 00:51:39
276 129 NOÈLIA PES MATEU 00:51:41
277 111 MARIA DE LOS ANGELES CASTILLO HERNANDEZ 00:51:48
278 123 DANIEL ARREDONDO RODRIGUEZ 00:52:00
279 494 JAVIER ARANTEGUI JIMENEZ 00:52:00
280 250 PEADAR STAGG 00:52:08
281 428 HELENA CASTELLS 00:52:11
282 12 MANOLO BADEMUNT MIQUEL 00:52:14
283 27 AURORA GARCIA MIRO 00:52:14
284 321 ORIOL TOMAS CAPELL 00:52:15
285 210 OSCAR ISIDRE DE CASTRO PASARRIUS 00:52:17
286 50 JAUME MONTULL MIMBRERA 00:52:30
287 392 ANNA CAZALLA BRINGUE 00:52:33
288 46 DANI MENEN COSTA 00:52:33
289 391 XAVIER CARRERA MARTINEZ 00:52:37
290 258 OSCAR FONDEVILA COLLADOS 00:52:37
291 330 CARLA GARCIA MARTI 00:52:38
292 323 MANEL AVEROS FLORENSA 00:52:38
293 437 SERGI FO PIFARRE 00:52:39
294 280 OSCAR RODRIGUEZ AGUADO 00:52:46
295 268 ADRIA MARTÍNEZ LLENA 00:52:47
296 283 ROBERTO SANCHEZ FARRE 00:52:47
297 277 CARLOS PEGUERA ANORO 00:52:47
298 467 ISIDRE DOMENECH GARCIA 00:52:47
299 287 ABEL TEIXIDO ALBAREDA 00:52:47
300 278 JOAQUIM RIBES BORRÀS 00:52:47
301 282 SALVADOR RUBIO CURCO 00:52:47
302 289 AGUSTI VICTOR CASTAN 00:52:48
303 281 DAVID ROMA PALOU 00:52:48
304 271 XAVIER MONNÉ GIMENO 00:52:48
305 288 JOSEP ANTONI VICENTE SERRANO 00:52:48
306 290 TERESA VIDAL BERTRAN 00:52:48
307 259 JORDI CODONY CENTELLES 00:52:48
308 265 JOSE VTE HERNANDEZ 00:52:48
309 263 MARC FEIXAS PERERA 00:52:48
310 284 ALBERT SAPERAS GUARCH 00:52:49
311 264 JOSEP ANTONI FONT AMPERI 00:52:49
312 286 MARTA SERRET BELLA 00:52:49
313 275 JORDI PANADÉS BAILÓN 00:52:49
314 262 ARNAU FEIXAS PERERA 00:52:50
315 73 JOAN CARLES BONET URIACH 00:52:51
316 473 JAVIER CRUZ GIMENO 00:52:51
317 371 ESTER CORTES ALONSO 00:52:54
318 226 MÒNICA LLOBERA FARNELL 00:52:59
319 124 M.CARME ALTISENT SANAHUJA 00:52:59
320 344 JAVIER LAZARO OCHOA 00:53:11
321 332 ROSA MOLLÓ HUGUET 00:53:18
322 220 RODRIGO GAETE HARZENETTER 00:53:26
323 474 RAMON VELASCO BLAZQUEZ 00:53:29
324 310 JOSÉ LUIS CUNILLERA 00:53:29
325 240 NEUS PEIRÓ CORTÉS 00:53:30
326 162 DIANA HERRERA CHACON 00:53:35
327 161 MIRIAM FARGUES ARANDA 00:53:35
328 197 GEMMA BLANCO SANTIAGO 00:53:35
329 378 BERNAT ANTELO SABARTÉS 00:53:36
330 484 SANTI BONET CAMPRUBÍ 00:53:37
331 298 ANA NAVAL GRAU 00:53:44
332 325 PERE SORRIBES QUEROL 00:54:04
333 206 JESUS CEREZA ZORRILLA 00:54:17
334 261 JULIÀ FEIXAS BOIX 00:54:20
335 303 JORDI MOLLÓ MARSAL 00:54:28
336 307 NOÈLIA TARRAGÓ SOLA 00:54:28
337 420 JORGE VALDERREY FERNÁNDEZ 00:54:33
338 406 DIDAC PUIG MASIP 00:54:33
339 386 ALEX ABAD FARRE 00:54:34
340 421 SERGIO SANZ ROBLES 00:54:34
341 267 ANGELS MAGALLON CORTADA 00:54:37
342 11 PATRICIA AYALA CORONEL 00:54:37
343 45 OCTAVIO MELUS SERON 00:54:44
344 438 RAMON FORNOS BLANCH 00:54:45
345 177 FELIPE CAVANILLAS MUÑOZ-TORRERO 00:54:45
346 373 SERGIO LÁZARO ANDRÉS 00:54:47
347 SANDRA RODRIGUEZ ORCAJO 00:54:49
348 366 PEDRO LÓPEZ IGUAL 00:54:51
349 463 PAU SERVETÓ MAYA 00:54:53
350 138 ANNA SANGRÀ CASALS 00:54:54
351 187 VÍCTOR ALEXANDRE GÓMEZ 00:54:54
352 219 RAMON GABERNET FONT 00:54:55
353 139 FRANCESC SANGRÀ PASCUAL 00:54:55
354 460 JORDI RICART PIFARRE 00:54:55
355 322 Mª ÁNGELES SERVETO PERNA 00:54:56
356 336 EDUARD RODRÍGUEZ ZAPATER 00:54:58
357 41 OLGA MASIP BONASTRE 00:55:01
358 28 OSKAR GIL BARRIO 00:55:02
359 238 JOSÉ ANTONIO MUÑOZ ARREDONDO 00:55:03
360 61 ALICIA SALILLAS TERUEL 00:55:03
361 383 JORDI TORRGUITART MAURI 00:55:06
362 453 LYDIA ZOE MONTGOMERY 00:55:10
363 372 MAITE NAVARRO SARRAU 00:55:14
364 458 JOSÉ LUIS OSORIO FERNÁNDEZ 00:55:15
365 304 MERITXELL MOLLÓ MARSAL 00:55:16
366 224 ANNA JOVÉ CAMPABADAL 00:55:17
367 20 RAFA CANO MARIN 00:55:20
368 253 JOAN VALLS HERNANDEZ 00:55:28
369 145 ANNA ALSINA ARMENGOL 00:55:38
370 422 JOSEP ALSINA PASCUAL 00:55:38
371 199 TITO BRAVO SANTIAGO 00:55:39
372 251 ESTHER TORRUELLA MONTANÉ 00:55:40
373 435 JOAN FARRE BECERRA 00:55:42
374 30 GEMMA GRACIA SALA 00:55:44
375 52 MAGDA ORTEU CORTES 00:55:44
376 285 FRANCESC SEGURA FLOR 00:55:45
377 369 ISABEL PASCUAL GARCIA 00:55:46
378 381 CARLOS ESPEJO MULLOR 00:55:49
379 190 RUBEN ANGULO 00:55:49
380 247 JOAN ROGES FORNS 00:55:51
381 492 ANTONI CASTELLS GIMENEZ 00:56:05
382 249 PAKO SEGURA FERNANDEZ 00:56:14
383 131 SERGI MARTI CHICO 00:56:23
384 93 MODEST GRAUS NABAU 00:56:43
385 333 MONICA MONTAÑEZ PESTAÑA 00:56:49
386 354 LAURA GARCIA LUNA 00:56:51
387 405 EMMA PALAU DOMINGO 00:57:04
388 396 FATIMA FERNANDEZ DE SIMONE 00:57:05
389 316 VÍCTOR JIMÉNEZ HERNÀNDEZ 00:57:13
390 476 JOSE BARROSO MANZANO 00:57:14
391 334 SUSSI MONTEAGUDO DURAN 00:57:21
392 340 MIGUEL ANGEL MIRO VISUS 00:57:26
393 29 SONIA GIL GUIRADO 00:57:26
394 208 MARCOS CORTADA MORALES 00:57:26
395 175 SERAFIN SANZ SANZ 00:57:36
396 375 JOSEP GRAELLS MOR 00:57:42
397 254 MARTÍ VERDEJO AMENGUAL 00:57:43
398 436 MANUEL FERNANDEZ URRUTIA 00:57:50
399 54 JORDI PASCUAL TERRADO 00:57:51
400 160 AURELIO JOSE BAUTISTA GIMENEZ 00:58:01
401 327 LAIA CARULLA GASION 00:58:12
402 490 ALBERT BORRELL CLAVERIA 00:58:15
403 489 FRANSIS SERRANO MOLINA 00:58:15
404 398 PACO MARIN AGUILAR 00:58:17
405 163 IVAN LLANES DOMINGUEZ 00:58:18
406 445 JOSE SANTOS LOPEZ LORENZO 00:58:22
407 196 IVAN BELLMUNT CASTANY 00:58:26
408 448 JORDI MARCÓ ALBERTÍ 00:58:28
409 110 EMILIO CONTRERAS FRIAS 00:58:28
410 426 JAUME CASALS BRENUY 00:58:44
411 427 NÚRIA CASANOVAS ARICHE 00:58:46
412 38 CRIS LUCAS MORENO 00:58:50
413 75 SANTI DE LA PUENTE MARTORELL 00:58:52
414 352 ANNA FONTOVA PONS 00:59:00
415 53 PERE PALANCAR 00:59:01
416 218 JORDI FORNELLS BARBERA 00:59:09
417 63 MONTSE SENTIS DUCH 00:59:11
418 44 NURIA MELGOSA SOLSONA 00:59:17
419 485 NOEMÍ LORCA DURÁN 00:59:25
420 294 ESTER BUIL 00:59:27
421 423 MIQUEL ANTILLACH DATSIRA 00:59:27
422 157 JOSE MANUEL CID CAYUELA 00:59:27
423 393 GEMMA CID PIÑEIRO 00:59:27
424 408 JAVIER ROSELL GRIÑO 00:59:29
425 444 ELISABET JUSTICIA RUIZ 00:59:48
426 159 PURIFICACION RAMOS VILCHES 00:59:54
427 34 LIRIA LAITA MASANES 00:59:57
428 66 ALBERT SOLE MAURI 00:59:58
429 390 MARIA CAMPODARBE VIDAL 00:59:59
430 429 JENNY CHIQUERO MARTINEZ 01:00:11
431 21 IMMA CHICO BALCELLS 01:00:20
432 179 JOAN LUQUE LUQUE 01:00:20
433 132 NÚRIA RIBES BALCELLS 01:00:21
434 469 JAUME BERNIS CASTELLS 01:00:43
435 384 CARLA JIMÉNEZ MORALES 01:00:49
436 166 MARY PAZ MOLERO PEREZ 01:00:51
437 51 IMMA ORO PEREMIQUEL 01:01:13
438 230 YOLANDA MARGINET MENESES 01:01:23
439 339 JORDI PLANELLAS FONT 01:01:43
440 229 ESTHER MARGINET MENESES 01:01:53
441 255 FERNANDO ZARRALUQUI CATALÁN 01:02:42
442 291 OLGA BAIGET CARDONA 01:02:55
443 233 MIQUEL MATEUS GORGUES 01:05:15
444 446 RAQUEL LOPEZ MARTINEZ 01:08:26
445 326 JOSEP ORIOL CAMPS CASADEMONT 01:08:59
446 67 BLANCA TORRES PONS 01:09:17